| time (UTC) | temp C | wind direction | speed KPH | gust KPH | rain 1hr cm | rain 24hr cm | rain mn cm | humidity % | barometer mb |
| 20260503194004 | 17 | 146 | 3.2 | 4.8 | 0.00 | 0.00 | 0.00 | 38 | 997.3 |
| 20260503193504 | 18 | 255 | 4.8 | 8.0 | 0.00 | 0.00 | 0.00 | 38 | 996.9 |
| 20260503193005 | 17 | 275 | 11.3 | 14.5 | 0.00 | 0.00 | 0.00 | 38 | 997.6 |
| 20260503192504 | 17 | 176 | 6.4 | 9.7 | 0.00 | 0.00 | 0.00 | 38 | 997.8 |
| 20260503192004 | 17 | 88 | 8.0 | 16.1 | 0.00 | 0.00 | 0.00 | 38 | 997.5 |
| 20260503191505 | 17 | 247 | 9.7 | 12.9 | 0.00 | 0.00 | 0.00 | 38 | 997.6 |
| 20260503190504 | 17 | 206 | 3.2 | 4.8 | 0.00 | 0.00 | 0.00 | 39 | 997.9 |
| 20260503190005 | 17 | 171 | 3.2 | 4.8 | 0.00 | 0.00 | 0.00 | 40 | 998.3 |
| 20260503185505 | 17 | 251 | 4.8 | 8.0 | 0.00 | 0.00 | 0.00 | 39 | 998.2 |
| 20260503185004 | 17 | 143 | 1.6 | 4.8 | 0.00 | 0.00 | 0.00 | 38 | 998.1 |
| 20260503184504 | 17 | 257 | 4.8 | 8.0 | 0.00 | 0.00 | 0.00 | 39 | 998.4 |
| 20260503184004 | 17 | 288 | 11.3 | 16.1 | 0.00 | 0.00 | 0.00 | 38 | 998.5 |
| 20260503183505 | 17 | 256 | 9.7 | 12.9 | 0.00 | 0.00 | 0.00 | 39 | 998.4 |
| 20260503183004 | 16 | 158 | 4.8 | 8.0 | 0.00 | 0.00 | 0.00 | 40 | 998.4 |
| 20260503182006 | 16 | 159 | 4.8 | 11.3 | 0.00 | 0.00 | 0.00 | 39 | 998.5 |
| 20260503181505 | 16 | 267 | 8.0 | 12.9 | 0.00 | 0.00 | 0.00 | 40 | 998.7 |
| 20260503180504 | 16 | 274 | 6.4 | 9.7 | 0.00 | 0.00 | 0.00 | 40 | 998.7 |
| 20260503180005 | 16 | 242 | 8.0 | 14.5 | 0.00 | 0.00 | 0.00 | 40 | 998.6 |
| 20260503175005 | 16 | 269 | 9.7 | 12.9 | 0.00 | 0.00 | 0.00 | 39 | 998.9 |
| 20260503174505 | 16 | 293 | 12.9 | 14.5 | 0.00 | 0.00 | 0.00 | 38 | 999.2 |
| 20260503173504 | 16 | 257 | 4.8 | 9.7 | 0.00 | 0.00 | 0.00 | 38 | 999.1 |
| 20260503173005 | 16 | 109 | 3.2 | 4.8 | 0.00 | 0.00 | 0.00 | 38 | 999.1 |
| 20260503172504 | 16 | 210 | 4.8 | 8.0 | 0.00 | 0.00 | 0.00 | 38 | 999.1 |
| 20260503172004 | 16 | 184 | 1.6 | 1.6 | 0.00 | 0.00 | 0.00 | 39 | 999.3 |
| 20260503171504 | 15 | 285 | 4.8 | 4.8 | 0.00 | 0.00 | 0.00 | 40 | 999.5 |
| 20260503171004 | 16 | 260 | 8.0 | 12.9 | 0.00 | 0.00 | 0.00 | 39 | 999.5 |
| 20260503170504 | 15 | 150 | 3.2 | 3.2 | 0.00 | 0.00 | 0.00 | 39 | 999.6 |
| 20260503151006 | 15 | 322 | 6.4 | 8.0 | 0.00 | 0.00 | 0.00 | 42 | 1000.0 |
| 20260503150505 | 14 | 284 | 11.3 | 12.9 | 0.00 | 0.00 | 0.00 | 42 | 1000.0 |
| 20260503131004 | 9 | 267 | 9.7 | 20.9 | 0.00 | 0.00 | 0.00 | 51 | 1000.6 |
| 20260503130504 | 8 | 229 | 9.7 | 12.9 | 0.00 | 0.00 | 0.00 | 51 | 1000.6 |
| 20260503110504 | 3 | 145 | 0.0 | 0.0 | 0.00 | 0.00 | 0.00 | 66 | 1000.8 |
| 20260503090504 | 2 | 188 | 0.0 | 0.0 | 0.00 | 0.00 | 0.00 | 70 | 1001.1 |
| 20260503081005 | 3 | 186 | 0.0 | 0.0 | 0.00 | 0.00 | 0.00 | 67 | 1001.4 |
| 20260503080505 | 3 | 184 | 0.0 | 0.0 | 0.00 | 0.00 | 0.00 | 67 | 1001.7 |
| 20260503072505 | 3 | 192 | 0.0 | 0.0 | 0.00 | 0.00 | 0.00 | 67 | 1001.6 |
| 20260503071504 | 3 | 192 | 0.0 | 0.0 | 0.00 | 0.00 | 0.00 | 67 | 1001.5 |
| 20260503071005 | 3 | 192 | 0.0 | 0.0 | 0.00 | 0.00 | 0.00 | 67 | 1001.6 |
| 20260503070505 | 3 | 192 | 0.0 | 1.6 | 0.00 | 0.00 | 0.00 | 67 | 1001.6 |
| 20260503055004 | 3 | 185 | 0.0 | 0.0 | 0.00 | 0.00 | 0.00 | 67 | 1002.0 |
| 20260503054505 | 3 | 184 | 0.0 | 0.0 | 0.00 | 0.00 | 0.00 | 66 | 1002.0 |
| 20260503053005 | 4 | 184 | 0.0 | 0.0 | 0.00 | 0.00 | 0.00 | 65 | 1002.1 |
| 20260503052004 | 4 | 170 | 0.0 | 0.0 | 0.00 | 0.00 | 0.00 | 64 | 1002.2 |
| 20260503051004 | 5 | 178 | 0.0 | 1.6 | 0.00 | 0.00 | 0.00 | 63 | 1002.2 |
| 20260503050504 | 5 | 195 | 0.0 | 1.6 | 0.00 | 0.00 | 0.00 | 62 | 1002.4 |
| 20260503050005 | 5 | 191 | 1.6 | 1.6 | 0.00 | 0.00 | 0.00 | 62 | 1002.4 |
| 20260503045504 | 5 | 162 | 0.0 | 0.0 | 0.00 | 0.00 | 0.00 | 63 | 1002.1 |
| 20260503045004 | 5 | 168 | 0.0 | 0.0 | 0.00 | 0.00 | 0.00 | 63 | 1002.4 |
| 20260503044504 | 5 | 176 | 0.0 | 0.0 | 0.00 | 0.00 | 0.00 | 63 | 1002.3 |
| 20260503043505 | 5 | 172 | 1.6 | 1.6 | 0.00 | 0.00 | 0.00 | 62 | 1002.2 |
| 20260503042504 | 5 | 179 | 1.6 | 1.6 | 0.00 | 0.00 | 0.00 | 62 | 1002.4 |
| 20260503042004 | 5 | 169 | 1.6 | 1.6 | 0.00 | 0.00 | 0.00 | 62 | 1002.3 |
| 20260503041505 | 5 | 186 | 0.0 | 1.6 | 0.00 | 0.00 | 0.00 | 62 | 1002.3 |
| 20260503041004 | 5 | 190 | 1.6 | 3.2 | 0.00 | 0.00 | 0.00 | 62 | 1002.3 |
| 20260503040504 | 5 | 184 | 0.0 | 0.0 | 0.00 | 0.00 | 0.00 | 63 | 1002.2 |
| 20260503035504 | 5 | 184 | 0.0 | 0.0 | 0.00 | 0.00 | 0.00 | 62 | 1002.2 |
| 20260503035005 | 5 | 184 | 0.0 | 0.0 | 0.00 | 0.00 | 0.00 | 62 | 1002.5 |
| 20260503034505 | 5 | 184 | 0.0 | 0.0 | 0.00 | 0.00 | 0.00 | 61 | 1002.7 |
| 20260503033005 | 5 | 184 | 0.0 | 0.0 | 0.00 | 0.00 | 0.00 | 62 | 1002.4 |
| 20260503032004 | 5 | 182 | 0.0 | 0.0 | 0.00 | 0.00 | 0.00 | 62 | 1002.5 |
| 20260503031505 | 5 | 183 | 0.0 | 0.0 | 0.00 | 0.00 | 0.00 | 62 | 1002.7 |
| 20260503031004 | 4 | 182 | 0.0 | 0.0 | 0.00 | 0.00 | 0.00 | 63 | 1002.7 |
| 20260503030505 | 4 | 183 | 0.0 | 0.0 | 0.00 | 0.00 | 0.00 | 64 | 1002.8 |
| 20260503025005 | 3 | 183 | 0.0 | 0.0 | 0.00 | 0.00 | 0.00 | 66 | 1002.8 |
| 20260503024504 | 3 | 183 | 0.0 | 0.0 | 0.00 | 0.00 | 0.00 | 66 | 1002.6 |
| 20260503023505 | 4 | 183 | 0.0 | 0.0 | 0.00 | 0.00 | 0.00 | 65 | 1002.7 |
| 20260503021504 | 4 | 183 | 0.0 | 0.0 | 0.00 | 0.00 | 0.00 | 62 | 1003.0 |
| 20260503021005 | 5 | 183 | 0.0 | 0.0 | 0.00 | 0.00 | 0.00 | 61 | 1002.9 |
| 20260503020504 | 5 | 183 | 0.0 | 0.0 | 0.00 | 0.00 | 0.00 | 60 | 1003.0 |
| 20260503015504 | 5 | 183 | 0.0 | 0.0 | 0.00 | 0.00 | 0.00 | 61 | 1002.8 |
| 20260503015004 | 5 | 183 | 0.0 | 0.0 | 0.00 | 0.00 | 0.00 | 60 | 1002.8 |
| 20260503014504 | 5 | 183 | 0.0 | 0.0 | 0.00 | 0.00 | 0.00 | 60 | 1002.9 |
| 20260503014005 | 5 | 183 | 0.0 | 0.0 | 0.00 | 0.00 | 0.00 | 59 | 1002.7 |
| 20260503013504 | 5 | 183 | 0.0 | 0.0 | 0.00 | 0.00 | 0.00 | 58 | 1002.6 |
| 20260503013004 | 5 | 183 | 0.0 | 0.0 | 0.00 | 0.00 | 0.00 | 57 | 1002.7 |
| 20260503012505 | 5 | 183 | 0.0 | 0.0 | 0.00 | 0.00 | 0.00 | 56 | 1002.8 |
| 20260503012004 | 6 | 183 | 0.0 | 0.0 | 0.00 | 0.00 | 0.00 | 56 | 1002.7 |
| 20260503011504 | 6 | 183 | 0.0 | 0.0 | 0.00 | 0.00 | 0.00 | 54 | 1002.7 |
| 20260503011005 | 6 | 183 | 0.0 | 0.0 | 0.00 | 0.00 | 0.00 | 54 | 1002.7 |
| 20260503010504 | 6 | 183 | 0.0 | 0.0 | 0.00 | 0.00 | 0.00 | 52 | 1002.8 |
| 20260503010004 | 7 | 196 | 0.0 | 0.0 | 0.00 | 0.00 | 0.00 | 51 | 1002.7 |
| 20260503005004 | 7 | 178 | 0.0 | 0.0 | 0.00 | 0.00 | 0.00 | 50 | 1002.8 |
| 20260503004505 | 7 | 178 | 0.0 | 0.0 | 0.00 | 0.00 | 0.00 | 50 | 1002.6 |
| 20260503004005 | 7 | 178 | 0.0 | 0.0 | 0.00 | 0.00 | 0.00 | 48 | 1002.6 |
| 20260503003504 | 7 | 182 | 0.0 | 0.0 | 0.00 | 0.00 | 0.00 | 47 | 1002.7 |
| 20260503003004 | 7 | 180 | 0.0 | 1.6 | 0.00 | 0.00 | 0.00 | 47 | 1002.7 |
| 20260503002505 | 8 | 209 | 1.6 | 3.2 | 0.00 | 0.00 | 0.00 | 47 | 1002.7 |
| 20260503001504 | 8 | 228 | 3.2 | 3.2 | 0.00 | 0.00 | 0.00 | 46 | 1002.7 |
| 20260503001005 | 8 | 215 | 1.6 | 1.6 | 0.00 | 0.00 | 0.00 | 45 | 1002.7 |
| 20260503000504 | 8 | 237 | 1.6 | 1.6 | 0.00 | 0.00 | 0.00 | 45 | 1002.7 |
| 20260503000004 | 8 | 226 | 3.2 | 3.2 | 0.00 | 0.00 | 0.00 | 45 | 1002.5 |
| 20260502235505 | 8 | 331 | 3.2 | 3.2 | 0.00 | 0.00 | 0.00 | 45 | 1002.6 |
| 20260502235005 | 8 | 311 | 1.6 | 3.2 | 0.00 | 0.00 | 0.00 | 44 | 1002.4 |
| 20260502234504 | 8 | 225 | 1.6 | 1.6 | 0.00 | 0.00 | 0.00 | 45 | 1002.5 |
| 20260502234004 | 8 | 227 | 3.2 | 3.2 | 0.00 | 0.00 | 0.00 | 45 | 1002.6 |
| 20260502233505 | 8 | 31 | 4.8 | 4.8 | 0.00 | 0.00 | 0.00 | 44 | 1002.5 |
| 20260502233005 | 8 | 305 | 4.8 | 4.8 | 0.00 | 0.00 | 0.00 | 45 | 1002.5 |
| 20260502232505 | 8 | 206 | 3.2 | 3.2 | 0.00 | 0.00 | 0.00 | 45 | 1002.6 |
| 20260502232004 | 8 | 236 | 1.6 | 1.6 | 0.00 | 0.00 | 0.00 | 44 | 1002.7 |
| 20260502231505 | 8 | 28 | 1.6 | 3.2 | 0.00 | 0.00 | 0.00 | 44 | 1002.6 |
| 20260502231004 | 8 | 303 | 4.8 | 4.8 | 0.00 | 0.00 | 0.00 | 44 | 1002.5 |
| 20260502230504 | 8 | 292 | 1.6 | 1.6 | 0.00 | 0.00 | 0.00 | 43 | 1002.5 |
| 20260502230005 | 8 | 237 | 0.0 | 1.6 | 0.00 | 0.00 | 0.00 | 43 | 1002.6 |
| 20260502225505 | 8 | 248 | 1.6 | 1.6 | 0.00 | 0.00 | 0.00 | 44 | 1002.7 |
| 20260502225005 | 8 | 262 | 3.2 | 3.2 | 0.00 | 0.00 | 0.00 | 44 | 1002.5 |
| 20260502224504 | 8 | 322 | 3.2 | 8.0 | 0.00 | 0.00 | 0.00 | 43 | 1002.4 |
| 20260502224004 | 8 | 329 | 3.2 | 3.2 | 0.00 | 0.00 | 0.00 | 44 | 1002.7 |
| 20260502223004 | 8 | 234 | 3.2 | 3.2 | 0.00 | 0.00 | 0.00 | 43 | 1002.8 |
| 20260502222505 | 8 | 357 | 0.0 | 0.0 | 0.00 | 0.00 | 0.00 | 44 | 1002.6 |
| 20260502222004 | 8 | 310 | 1.6 | 3.2 | 0.00 | 0.00 | 0.00 | 44 | 1002.8 |
| 20260502221505 | 8 | 251 | 3.2 | 3.2 | 0.00 | 0.00 | 0.00 | 43 | 1002.6 |
| 20260502221005 | 8 | 231 | 3.2 | 3.2 | 0.00 | 0.00 | 0.00 | 44 | 1002.7 |
| 20260502220004 | 8 | 214 | 1.6 | 3.2 | 0.00 | 0.00 | 0.00 | 45 | 1002.5 |
| 20260502215504 | 8 | 282 | 1.6 | 3.2 | 0.00 | 0.00 | 0.00 | 45 | 1002.8 |
| 20260502215005 | 8 | 248 | 1.6 | 1.6 | 0.00 | 0.00 | 0.00 | 44 | 1002.9 |
| 20260502214504 | 8 | 248 | 1.6 | 1.6 | 0.00 | 0.00 | 0.00 | 43 | 1002.8 |
| 20260502214004 | 8 | 306 | 4.8 | 4.8 | 0.00 | 0.00 | 0.00 | 43 | 1003.0 |
| 20260502213505 | 8 | 273 | 3.2 | 3.2 | 0.00 | 0.00 | 0.00 | 44 | 1002.7 |
| 20260502213005 | 8 | 211 | 0.0 | 1.6 | 0.00 | 0.00 | 0.00 | 43 | 1002.7 |
| 20260502212504 | 8 | 284 | 4.8 | 4.8 | 0.00 | 0.00 | 0.00 | 43 | 1002.9 |
| 20260502212004 | 8 | 298 | 8.0 | 11.3 | 0.00 | 0.00 | 0.00 | 43 | 1002.8 |
| 20260502211505 | 8 | 15 | 3.2 | 3.2 | 0.00 | 0.00 | 0.00 | 42 | 1002.7 |
| 20260502211004 | 8 | 274 | 3.2 | 3.2 | 0.00 | 0.00 | 0.00 | 43 | 1002.8 |
| 20260502210504 | 8 | 270 | 4.8 | 8.0 | 0.00 | 0.00 | 0.00 | 42 | 1002.8 |
| 20260502210004 | 8 | 344 | 4.8 | 4.8 | 0.00 | 0.00 | 0.00 | 43 | 1002.9 |
| 20260502205505 | 8 | 281 | 4.8 | 4.8 | 0.00 | 0.00 | 0.00 | 42 | 1002.8 |
| 20260502205005 | 8 | 222 | 3.2 | 3.2 | 0.00 | 0.00 | 0.00 | 43 | 1002.6 |
| 20260502204504 | 8 | 281 | 3.2 | 4.8 | 0.00 | 0.00 | 0.00 | 42 | 1003.0 |
| 20260502204004 | 8 | 234 | 1.6 | 1.6 | 0.00 | 0.00 | 0.00 | 44 | 1003.2 |
| 20260502203504 | 8 | 317 | 4.8 | 4.8 | 0.00 | 0.00 | 0.00 | 43 | 1003.0 |
| 20260502202505 | 8 | 244 | 4.8 | 8.0 | 0.00 | 0.00 | 0.00 | 43 | 1003.0 |
| 20260502202004 | 8 | 307 | 3.2 | 3.2 | 0.00 | 0.00 | 0.00 | 44 | 1003.2 |
| 20260502201004 | 8 | 297 | 3.2 | 4.8 | 0.00 | 0.00 | 0.00 | 42 | 1003.3 |
| 20260502200504 | 8 | 304 | 4.8 | 4.8 | 0.00 | 0.00 | 0.00 | 43 | 1003.4 |
| 20260502195505 | 9 | 331 | 6.4 | 9.7 | 0.00 | 0.00 | 0.00 | 41 | 1003.3 |
| 20260502195004 | 9 | 86 | 1.6 | 3.2 | 0.00 | 0.00 | 0.00 | 41 | 1003.4 |